Wind_Speed
43 39 38 35 34 35 33 28 26 27 24 23 22 21 20 19 23 23 23 22 19 20 21 24 27 30 28 22 19 21 21 21 20 19 18 17 15 12 11 10 8 7 8
40 37 36 35 33 31 30 28 25 26 28 26 24 24 21 21 21 25 25 26 24 23 24 25 26 27 29 28 25 26 25 23 23 22 20 19 17 17 14 11 11 12 14
40 39 36 35 30 26 28 26 26 26 27 28 29 27 26 24 26 26 26 27 28 28 28 28 28 30 30 30 29 27 27 26 26 26 24 23 20 16 17 14 14 15 17
40 36 31 31 28 24 26 27 26 26 27 26 27 29 30 29 31 30 29 30 30 32 32 30 30 31 31 32 29 29 28 28 30 29 26 23 22 20 19 19 20 19 21
32 30 28 27 25 23 25 26 26 26 26 25 25 26 27 29 30 31 30 32 35 35 35 33 31 31 31 33 31 32 32 30 31 30 28 28 24 23 23 23 23 24 26
26 25 23 22 23 20 21 23 23 23 24 24 23 21 23 25 27 29 30 34 37 35 32 38 37 35 34 34 36 35 36 35 33 33 33 31 29 27 26 25 25 26 28
24 23 20 20 20 19 19 19 22 22 23 24 24 21 21 21 20 23 27 28 30 33 35 35 38 40 41 39 38 40 38 39 37 36 36 35 34 33 31 31 31 32 31
22 21 20 21 22 20 19 17 17 17 19 20 23 26 28 26 22 22 23 23 24 26 30 36 39 39 41 42 43 44 40 41 39 39 39 38 37 37 34 33 32 34 35
23 22 21 22 23 22 23 23 23 22 23 24 24 26 25 28 30 31 32 34 35 31 26 24 28 35 38 40 42 44 44 45 44 43 41 41 40 39 36 35 37 38 38
25 26 26 25 25 26 27 28 28 28 28 29 30 31 31 29 26 29 32 35 38 39 37 34 30 25 31 35 36 38 39 40 44 46 43 42 42 40 38 39 40 41 42
30 29 30 31 31 31 32 32 32 34 34 34 34 34 34 34 33 33 34 35 34 37 37 41 41 41 35 29 33 38 39 39 39 43 45 44 43 42 43 43 44 45 45
36 36 36 36 36 37 38 39 39 39 40 39 39 38 37 37 38 38 37 40 41 40 41 40 40 42 41 41 39 32 34 37 38 39 43 45 45 46 46 47 46 48 44
42 42 43 43 43 44 44 44 45 45 45 46 45 42 42 43 43 44 44 46 46 45 44 44 44 44 43 43 41 37 32 32 32 37 40 42 46 48 48 48 48 43 41
49 49 49 49 50 49 50 50 50 50 51 51 50 50 50 51 51 51 50 50 50 48 49 51 50 48 47 44 44 44 43 42 40 41 37 39 41 43 43 44 45 44 43
52 52 53 54 54 54 55 55 54 55 56 56 56 57 57 57 58 57 57 57 56 55 55 54 53 53 52 50 48 47 45 45 43 39 37 35 36 38 44 45 44 43 39
58 59 59 60 60 60 60 60 60 62 62 63 63 63 63 62 61 60 60 59 60 61 62 59 59 57 56 55 56 54 51 49 46 43 40 40 40 39 36 40 41 39 35
65 66 66 66 66 67 66 67 67 67 67 66 66 65 63 61 61 62 61 61 61 62 63 64 63 64 60 61 60 60 58 53 50 48 44 43 43 39 33 34 37 36 35
62 62 62 63 63 64 63 63 62 61 61 60 59 60 61 61 61 60 61 61 61 61 63 64 64 64 65 67 67 67 65 59 53 51 48 46 45 38 31 32 31 33 35
55 55 56 56 56 55 53 53 53 54 55 56 57 60 62 64 64 64 65 66 67 67 66 66 67 68 67 66 67 69 69 67 64 60 56 52 50 43 34 31 29 34 37
47 48 47 47 47 48 49 51 52 53 55 58 61 64 67 69 70 71 71 72 74 75 74 72 71 71 71 70 70 68 69 68 69 64 61 59 55 51 39 41 39 44 44
44 44 47 48 49 52 54 55 57 60 62 64 66 69 71 74 76 78 79 80 82 82 81 80 78 77 77 77 77 73 72 70 66 67 65 65 61 59 43 42 42 59 56
50 52 54 54 55 57 59 62 64 66 68 70 72 76 80 82 85 89 90 90 90 89 88 87 87 86 83 84 84 82 77 75 71 69 68 68 66 62 55 49 50 56 53
58 58 60 61 62 63 66 68 69 71 73 77 81 84 87 92 95 96 97 96 94 92 91 90 90 90 91 91 90 89 85 80 80 76 74 71 69 66 66 56 57 61 62
62 64 67 68 69 71 73 74 75 77 79 84 87 91 94 95 96 96 96 97 95 89 91 94 93 94 94 93 93 92 90 88 84 80 79 77 74 69 71 67 63 65 66
69 71 73 75 75 78 81 81 83 83 86 87 88 90 89 88 89 90 90 93 94 88 78 84 87 90 92 93 94 93 90 91 90 85 83 81 79 76 75 73 70 70 71
77 75 69 71 70 72 73 74 75 77 80 82 82 83 82 81 81 79 81 85 83 81 69 69 75 79 82 87 88 93 91 91 91 90 85 84 83 82 80 76 77 77 77
Wind_Direction
291 292 295 298 301 301 298 295 293 288 287 284 283 285 285 275 269 273 276 284 289 296 295 296 287 279 280 275 284 288 290 298 309 314 323 332 327 319 321 321 312 315 309
288 291 293 298 300 296 293 290 289 288 289 283 275 273 275 270 267 270 273 274 282 288 291 286 286 286 284 279 274 281 284 288 297 306 314 314 323 321 314 314 319 311 302
286 287 291 296 293 291 290 286 284 283 282 285 285 280 273 270 270 271 270 271 275 279 291 285 280 280 280 283 283 278 284 285 289 296 304 305 298 314 314 309 313 314 308
285 287 291 288 288 288 285 284 282 282 281 279 276 278 279 277 280 273 270 271 272 279 285 282 278 278 280 281 282 285 281 281 286 289 292 298 299 298 304 304 301 306 304
281 283 282 281 280 278 279 281 282 282 281 283 283 278 276 274 275 276 271 269 273 273 277 278 277 276 277 278 280 288 283 282 285 286 286 292 291 291 291 292 295 297 300
273 274 271 276 274 273 269 274 280 283 280 283 283 284 275 273 271 269 265 265 265 270 269 271 271 270 273 274 273 281 282 281 281 282 282 288 290 288 289 288 293 296 298
265 265 264 267 271 273 271 273 273 277 278 278 283 285 289 293 290 287 275 276 275 266 265 267 269 269 265 270 269 275 277 275 277 279 280 283 287 286 285 285 289 293 295
266 265 264 263 268 273 272 272 277 284 288 284 278 278 278 278 279 284 284 287 293 285 273 265 263 266 268 269 268 268 270 271 271 273 273 276 281 284 285 286 289 291 290
269 269 268 266 271 276 276 276 277 279 282 284 285 284 280 279 278 280 281 281 283 287 289 285 287 272 267 266 268 267 268 264 262 265 269 273 275 277 277 281 286 289 290
270 271 270 274 275 274 276 279 283 284 283 282 282 285 285 283 284 283 282 281 281 281 278 281 286 286 279 273 269 270 270 269 266 259 262 266 269 271 274 277 280 282 287
271 272 272 273 273 271 271 270 271 272 272 273 273 275 278 282 285 287 284 284 284 284 280 274 277 280 283 287 282 272 271 272 275 262 258 262 264 266 270 274 278 280 283
273 274 274 273 272 272 273 270 270 270 268 269 269 268 270 273 276 275 278 280 280 281 284 283 279 276 277 282 282 282 283 273 274 273 264 261 262 264 267 270 274 280 280
273 274 273 273 273 273 273 273 271 272 273 273 274 271 268 270 271 272 271 272 274 277 279 279 281 280 276 276 275 276 274 282 286 279 274 268 265 266 268 270 274 275 276
272 273 273 273 273 273 273 273 273 275 276 275 275 275 274 274 272 271 269 268 266 267 270 273 275 277 279 278 275 276 274 277 279 283 282 275 273 271 270 272 274 275 276
270 271 272 273 274 275 275 276 276 276 277 275 275 274 274 274 274 273 271 270 266 263 264 266 266 269 272 273 274 275 274 275 275 275 276 275 278 276 273 272 273 274 271
271 271 273 274 275 276 275 276 276 276 276 276 276 276 275 275 274 274 274 274 271 268 266 263 262 264 263 265 267 268 270 272 272 273 271 270 273 276 286 275 273 270 267
273 272 273 274 274 274 275 275 277 278 278 279 279 278 278 277 276 275 273 272 270 269 268 266 264 261 259 261 262 264 266 267 267 269 269 269 269 272 278 276 272 270 266
271 271 271 272 273 274 275 277 278 279 279 279 279 279 278 277 276 276 275 274 273 273 271 268 265 263 261 259 260 262 263 262 263 265 266 267 268 269 270 271 271 273 270
272 271 271 272 273 274 276 276 277 278 278 279 279 280 281 280 279 277 275 273 272 271 270 271 271 269 264 260 259 258 260 261 262 260 261 262 266 266 259 261 265 275 281
274 274 273 273 274 275 276 277 276 277 277 277 277 279 280 279 278 277 276 275 273 272 270 269 267 268 268 266 261 257 257 258 260 258 257 259 260 261 256 251 269 284 276
279 278 276 277 278 279 281 281 280 279 279 279 280 281 281 280 279 277 275 273 271 270 269 266 264 262 262 263 260 260 259 255 255 258 255 252 255 258 254 252 246 255 265
278 277 279 280 281 281 282 282 282 282 282 283 284 284 284 284 283 280 278 275 272 270 269 267 265 263 262 261 261 259 258 258 255 252 253 253 251 253 251 244 243 242 249
276 278 279 280 281 282 281 281 281 281 283 283 284 284 285 283 280 280 279 279 278 276 273 270 268 266 264 262 261 261 259 257 257 256 253 250 251 248 251 244 242 237 245
277 279 280 281 282 282 282 281 281 282 282 283 284 286 284 284 285 285 283 283 282 278 274 271 268 265 262 260 259 258 258 257 256 254 256 255 252 248 245 244 240 244 248
280 281 282 283 284 284 282 281 281 282 282 284 283 284 285 287 288 289 289 287 287 286 279 271 267 264 261 259 257 257 255 255 255 253 252 254 254 252 248 245 242 241 244
281 281 282 285 285 286 287 284 282 281 281 282 284 286 288 287 288 290 290 291 291 290 285 273 265 261 259 256 256 254 254 252 253 254 251 251 252 253 252 248 244 241 241
Height
10883 10882 10882 10882 10880 10877 10876 10875 10875 10875 10876 10877 10877 10877 10878 10878 10879 10879 10879 10879 10879 10878 10878 10877 10877 10877 10877 10876 10875 10874 10873 10873 10872 10870 10868 10868 10866 10864 10863 10861 10860 10858 10857
10878 10878 10877 10876 10875 10873 10871 10871 10871 10870 10869 10871 10873 10874 10874 10874 10876 10875 10875 10875 10874 10874 10874 10873 10873 10873 10873 10872 10873 10872 10871 10870 10869 10868 10867 10866 10864 10863 10862 10860 10859 10858 10856
10873 10873 10872 10870 10870 10869 10866 10866 10866 10866 10866 10866 10867 10868 10869 10870 10870 10871 10871 10871 10871 10870 10869 10869 10869 10869 10868 10868 10868 10869 10868 10868 10867 10866 10865 10863 10862 10860 10860 10859 10858 10857 10855
10868 10867 10867 10864 10864 10863 10861 10860 10861 10861 10861 10862 10862 10862 10863 10863 10863 10864 10866 10866 10866 10866 10865 10865 10865 10865 10864 10863 10863 10864 10864 10864 10863 10863 10862 10861 10859 10858 10857 10857 10856 10854 10853
10863 10862 10861 10860 10859 10859 10858 10856 10856 10856 10857 10857 10857 10857 10857 10857 10858 10858 10859 10860 10860 10861 10861 10860 10860 10861 10860 10859 10858 10858 10859 10859 10859 10858 10858 10857 10856 10855 10854 10853 10853 10851 10850
10857 10857 10856 10854 10853 10853 10854 10853 10852 10852 10851 10852 10852 10852 10852 10852 10852 10852 10853 10854 10855 10855 10855 10855 10855 10855 10855 10855 10854 10853 10853 10853 10854 10853 10852 10852 10852 10851 10850 10849 10848 10847 10846
10852 10851 10851 10850 10849 10849 10850 10850 10850 10849 10849 10848 10848 10848 10848 10848 10849 10848 10847 10848 10848 10848 10848 10849 10849 10849 10849 10849 10848 10848 10847 10847 10847 10847 10846 10846 10845 10845 10844 10843 10843 10842 10840
10847 10847 10847 10846 10845 10845 10846 10847 10846 10845 10845 10845 10844 10844 10843 10844 10844 10844 10843 10843 10843 10843 10842 10842 10842 10842 10843 10843 10842 10841 10840 10840 10840 10840 10840 10839 10839 10838 10837 10836 10836 10835 10834
10842 10843 10842 10842 10842 10842 10842 10842 10843 10842 10842 10841 10840 10838 10838 10838 10838 10837 10838 10837 10838 10838 10837 10837 10837 10836 10835 10834 10834 10834 10833 10832 10832 10832 10832 10831 10832 10831 10830 10830 10829 10828 10828
10837 10837 10838 10838 10838 10838 10838 10838 10838 10838 10837 10836 10835 10833 10832 10833 10833 10832 10831 10831 10830 10830 10830 10830 10830 10829 10828 10828 10827 10826 10825 10824 10824 10824 10824 10824 10823 10823 10822 10822 10822 10821 10820
10832 10833 10833 10833 10833 10833 10833 10833 10833 10833 10832 10831 10830 10829 10828 10827 10826 10825 10824 10823 10822 10821 10821 10822 10822 10821 10821 10820 10819 10818 10818 10817 10815 10815 10816 10816 10815 10815 10814 10814 10813 10812 10811
10826 10827 10827 10827 10826 10826 10826 10826 10826 10825 10824 10823 10822 10823 10822 10821 10820 10818 10817 10816 10815 10814 10812 10811 10812 10812 10813 10812 10811 10811 10810 10809 10808 10807 10807 10808 10807 10807 10806 10805 10805 10804 10803
10819 10819 10819 10819 10819 10819 10818 10817 10817 10816 10815 10815 10813 10814 10814 10813 10812 10811 10810 10809 10806 10806 10805 10803 10802 10801 10802 10802 10803 10802 10803 10803 10802 10801 10799 10799 10799 10798 10798 10797 10796 10796 10795
10811 10811 10810 10810 10809 10809 10808 10807 10807 10807 10806 10805 10804 10803 10802 10801 10800 10799 10798 10797 10798 10797 10795 10793 10793 10792 10792 10792 10792 10792 10793 10793 10793 10793 10792 10791 10791 10790 10789 10789 10788 10788 10787
10802 10801 10800 10799 10799 10798 10797 10796 10796 10795 10794 10793 10792 10790 10789 10788 10787 10787 10786 10785 10785 10785 10784 10784 10784 10782 10781 10781 10781 10781 10782 10783 10783 10783 10783 10783 10781 10781 10782 10780 10780 10780 10779
10791 10790 10789 10789 10787 10787 10786 10785 10784 10783 10781 10780 10780 10778 10777 10776 10774 10774 10773 10772 10771 10771 10772 10772 10772 10772 10772 10769 10768 10768 10770 10772 10772 10774 10774 10773 10773 10773 10772 10772 10771 10772 10771
10778 10777 10777 10776 10775 10774 10773 10772 10771 10770 10768 10767 10766 10765 10763 10761 10760 10759 10758 10758 10756 10755 10755 10756 10756 10757 10759 10756 10755 10755 10758 10760 10762 10762 10763 10763 10763 10764 10764 10763 10763 10764 10764
10765 10764 10763 10762 10761 10760 10759 10758 10758 10756 10755 10753 10751 10750 10748 10747 10746 10745 10744 10743 10742 10742 10741 10740 10739 10740 10741 10741 10742 10742 10743 10746 10750 10752 10752 10752 10752 10753 10755 10754 10754 10755 10755
10752 10751 10751 10750 10750 10749 10748 10747 10746 10744 10743 10741 10739 10736 10734 10732 10730 10730 10728 10727 10724 10725 10725 10724 10723 10723 10725 10725 10725 10726 10728 10730 10734 10738 10739 10740 10740 10742 10743 10744 10744 10745 10746
10742 10740 10740 10740 10739 10739 10738 10737 10735 10733 10731 10728 10726 10724 10721 10718 10715 10713 10712 10710 10707 10706 10706 10706 10706 10705 10706 10707 10707 10710 10712 10715 10717 10721 10726 10726 10727 10728 10732 10732 10732 10731 10732
10732 10730 10729 10729 10729 10729 10727 10725 10723 10720 10717 10714 10712 10708 10705 10701 10698 10695 10692 10689 10686 10684 10683 10682 10683 10686 10686 10684 10685 10691 10693 10698 10701 10704 10706 10710 10713 10713 10721 10720 10718 10719 10721
10721 10720 10719 10719 10719 10718 10716 10713 10709 10706 10701 10699 10695 10690 10685 10681 10675 10669 10666 10665 10664 10664 10663 10662 10662 10662 10666 10665 10663 10667 10676 10678 10682 10684 10687 10691 10697 10701 10705 10707 10707 10707 10708
10712 10711 10710 10709 10708 10708 10704 10700 10696 10692 10688 10681 10675 10670 10666 10659 10652 10648 10644 10642 10641 10641 10640 10637 10638 10637 10639 10642 10643 10645 10652 10661 10661 10667 10669 10675 10679 10685 10686 10692 10694 10695 10696
10701 10699 10698 10697 10695 10692 10689 10685 10682 10676 10671 10662 10658 10651 10643 10638 10630 10624 10618 10613 10612 10614 10610 10605 10605 10607 10608 10613 10614 10620 10627 10633 10641 10648 10650 10656 10661 10666 10669 10674 10680 10682 10684
10688 10685 10684 10682 10681 10676 10671 10667 10663 10657 10652 10647 10639 10631 10624 10619 10611 10602 10595 10588 10581 10576 10578 10573 10571 10573 10577 10583 10587 10592 10601 10607 10614 10624 10632 10634 10640 10646 10649 10658 10664 10667 10668
10673 10670 10668 10667 10662 10657 10653 10647 10643 10638 10633 10627 10621 10616 10609 10603 10595 10587 10575 10564 10557 10549 10545 10541 10540 10543 10547 10555 10562 10567 10573 10583 10590 10597 10609 10615 10620 10624 10631 10639 10644 10647 10650